Regional Weather Roundup
Issued by NWS

Home | Current Version | Previous Version | Graphics & Text | Print | Product List | Glossary On
Versions: 1 2 3 4 5 6 7 8 9 10 11 12 13 14 15 16 17 18 19 20 21 22 23 24 25 26 27 28 29 30 31 32 33 34 35 36 37 38 39 40 41 42 43 44 45 46 47 48 49 50
000
ASUS43 KBIS 171902
RWRND

NORTH DAKOTA REGIONAL WEATHER ROUNDUP
NATIONAL WEATHER SERVICE BISMARCK ND
100 PM CST SAT FEB 17 2018

NOTE: "FAIR" INDICATES FEW OR NO CLOUDS BELOW 12,000 FEET WITH NO
SIGNIFICANT WEATHER AND/OR OBSTRUCTIONS TO VISIBILITY.


NDZ001>003-009>011-017-172000-
NORTHWEST NORTH DAKOTA

CITY           SKY/WX    TMP DP  RH WIND       PRES   REMARKS
WILLISTON      SUNNY     17   7  64 W15       30.00S WCI   2
MINOT          PTSUNNY   22  10  60 W24G30    29.93S WCI   5
MINOT AFB      PTSUNNY   19  10  66 W23       29.92S WCI   2
$$

NDZ018>021-031>035-040>046-172000-
SOUTHWEST NORTH DAKOTA

CITY           SKY/WX    TMP DP  RH WIND       PRES   REMARKS
BISMARCK       MOSUNNY   25  11  55 NW17G23   30.01F WCI  12
DICKINSON      SUNNY     18   8  65 W20       29.95F WCI   2
GARRISON         N/A     21  11  65 W21       29.95F WCI   5
HETTINGER ARPT SUNNY     17   8  67 NW17      29.99F WCI   1
$$

NDZ004>008-012>016-024-026-027-054-172000-
NORTHEAST NORTH DAKOTA

CITY           SKY/WX    TMP DP  RH WIND       PRES   REMARKS
GRAND FORKS    FAIR      22   9  57 NW18      29.92R WCI   7
GRND FRKS AFB  SUNNY     21   4  48 NW18G25   29.92R WCI   6
DEVILS LAKE    FAIR      16   8  71 W18       29.92F WCI   0
$$

NDZ022-023-025-028>030-036>039-047>053-172000-
SOUTHEAST NORTH DAKOTA

CITY           SKY/WX    TMP DP  RH WIND       PRES   REMARKS
FARGO          FAIR      24  14  65 NW20      29.95S WCI  10
JAMESTOWN      SUNNY     23   9  55 NW20      29.95R WCI   8
$$





USA.gov is the U.S. government's official web portal to all federal, state and local government web resources and services.